| time (UTC) | temp F | wind direction | speed MPH | gust MPH | rain 1hr in | rain 24hr in | rain mn in | humidity % | barometer mb |
| 20260505034537 | 62 | 360 | 2.0 | 5.0 | 0.00 | 0.00 | 0.00 | 39 | 1016.1 |
| 20260505031542 | 61 | 360 | 1.0 | 3.0 | 0.00 | 0.00 | 0.00 | 40 | 1016.3 |
| 20260505030036 | 61 | 360 | 1.0 | 3.0 | 0.00 | 0.00 | 0.00 | 41 | 1016.2 |
| 20260505024543 | 62 | 360 | 0.0 | 4.0 | 0.00 | 0.00 | 0.00 | 40 | 1016.2 |
| 20260505021534 | 64 | 360 | 0.0 | 2.0 | 0.00 | 0.00 | 0.00 | 36 | 1016.1 |
| 20260505020030 | 65 | 360 | 0.0 | 3.0 | 0.00 | 0.00 | 0.00 | 35 | 1016.0 |
| 20260505014536 | 66 | 360 | 1.0 | 5.0 | 0.00 | 0.00 | 0.00 | 34 | 1015.7 |
| 20260505013028 | 66 | 360 | 2.0 | 6.0 | 0.00 | 0.00 | 0.00 | 33 | 1015.7 |
| 20260505011528 | 67 | 360 | 2.0 | 4.0 | 0.00 | 0.00 | 0.00 | 32 | 1015.6 |
| 20260505010027 | 67 | 360 | 2.0 | 5.0 | 0.00 | 0.00 | 0.00 | 30 | 1015.4 |
| 20260505004533 | 68 | 360 | 2.0 | 4.0 | 0.00 | 0.00 | 0.00 | 30 | 1015.2 |
| 20260505001528 | 69 | 360 | 2.0 | 5.0 | 0.00 | 0.00 | 0.00 | 27 | 1014.9 |
| 20260505000030 | 70 | 165 | 1.0 | 5.0 | 0.00 | 0.00 | 0.00 | 26 | 1015.0 |
| 20260504234525 | 71 | 180 | 3.0 | 6.0 | 0.00 | 0.00 | 0.00 | 25 | 1014.8 |
| 20260504231523 | 72 | 184 | 3.0 | 8.0 | 0.00 | 0.00 | 0.00 | 24 | 1014.5 |
| 20260504230023 | 72 | 231 | 3.0 | 7.0 | 0.00 | 0.00 | 0.00 | 23 | 1014.5 |
| 20260504224522 | 73 | 181 | 3.0 | 7.0 | 0.00 | 0.00 | 0.00 | 23 | 1014.6 |
| 20260504221523 | 73 | 360 | 4.0 | 8.0 | 0.00 | 0.00 | 0.00 | 23 | 1014.8 |
| 20260504220020 | 74 | 178 | 4.0 | 8.0 | 0.00 | 0.00 | 0.00 | 22 | 1014.7 |
| 20260504214524 | 75 | 195 | 5.0 | 11.0 | 0.00 | 0.00 | 0.00 | 23 | 1014.8 |
| 20260504211524 | 75 | 360 | 2.0 | 11.0 | 0.00 | 0.00 | 0.00 | 23 | 1014.7 |
| 20260504210018 | 75 | 210 | 2.0 | 9.0 | 0.00 | 0.00 | 0.00 | 23 | 1014.8 |
| 20260504204533 | 76 | 163 | 5.0 | 14.0 | 0.00 | 0.00 | 0.00 | 22 | 1014.8 |
| 20260504201517 | 76 | 172 | 4.0 | 10.0 | 0.00 | 0.00 | 0.00 | 19 | 1015.0 |
| 20260504200013 | 76 | 130 | 2.0 | 11.0 | 0.00 | 0.00 | 0.00 | 23 | 1015.2 |
| 20260504194511 | 76 | 161 | 5.0 | 9.0 | 0.00 | 0.00 | 0.00 | 19 | 1015.4 |
| 20260504191509 | 75 | 176 | 4.0 | 9.0 | 0.00 | 0.00 | 0.00 | 22 | 1015.9 |
| 20260504190006 | 74 | 183 | 4.0 | 9.0 | 0.00 | 0.00 | 0.00 | 22 | 1016.0 |
| 20260504184505 | 74 | 124 | 2.0 | 10.0 | 0.00 | 0.00 | 0.00 | 22 | 1016.3 |
| 20260504181506 | 73 | 178 | 3.0 | 9.0 | 0.00 | 0.00 | 0.00 | 24 | 1016.5 |
| 20260504180001 | 73 | 119 | 2.0 | 10.0 | 0.00 | 0.00 | 0.00 | 27 | 1016.4 |
| 20260504174503 | 73 | 44 | 2.0 | 9.0 | 0.00 | 0.00 | 0.00 | 23 | 1016.7 |
| 20260504171505 | 72 | 241 | 1.0 | 8.0 | 0.00 | 0.00 | 0.00 | 23 | 1017.0 |
| 20260504081542 | 44 | 360 | 0.0 | 2.0 | 0.00 | 0.00 | 0.00 | 64 | 1017.6 |
| 20260504044541 | 49 | 360 | 0.0 | 0.0 | 0.00 | 0.00 | 0.00 | 56 | 1017.7 |
| 20260504043130 | 50 | 360 | 0.0 | 0.0 | 0.00 | 0.00 | 0.00 | 57 | 1017.8 |
| 20260504041530 | 50 | 360 | 0.0 | 0.0 | 0.00 | 0.00 | 0.00 | 56 | 1017.9 |
| 20260504040038 | 50 | 360 | 0.0 | 0.0 | 0.00 | 0.00 | 0.00 | 55 | 1018.1 |